Starlink 31497

operational
NORAD ID: 60592 Int'l Des: 2024-150 Owner: SPXS Country: US Constellation: starlink
LEOCIRCULAR

Starlink 31497について

説明を読み込み中...

リアルタイム位置

3D地球を読み込み中...

次回通過

高度履歴

Altitude vs Time

uPlot chart will show altitude changes over time

軌道要素

1 60592U 24150K 25259.64543481 -.00001323 00000-0 -32570-4 0 9994
2 60592 53.1617 35.4992 0001067 88.7208 271.3915 15.30181058 61395
Epoch: Sep 16, 2025 • Age: 35 hours

現在のステータス

高度 477.8 km
速度 7.63 km/s
衛星直下点 37.22°N, 33.14°E
打ち上げ日 Aug 20, 2024
運用期間 1 years
タイプ internet

技術仕様

分類 Payload
質量 730.00 kg
乾燥質量 700.00 kg
総質量 730.00 kg
長さ 0.30 m
直径 4.10 m
スパン 29.00 m
形状 Box + pan
製造者 SPXS
バスタイプ Starlink V2M
フェーズステータス In Orbit
所有者/国 SPXS/US

大規模コンステレーション

Loading constellations...